Time,TemperatureF,DewpointF,PressureIn,WindDirection,WindDirectionDegrees,WindSpeedMPH,WindSpeedGustMPH,Humidity,HourlyPrecipIn,Conditions,Clouds,dailyrainin,SoftwareType,DateUTC
2013-06-23 00:01:00,78.8,72.5,30.06,ESE,113,0.2,1.1,81,0.05,,,0.04,WUHU216HW,2013-06-23 04:01:00,
2013-06-23 00:02:00,78.8,72.5,30.06,NE,45,0.9,1.1,81,0.05,,,0.00,WUHU216HW,2013-06-23 04:02:00,
2013-06-23 00:07:00,78.8,72.5,30.06,ENE,68,0.0,1.1,81,0.06,,,0.01,WUHU216HW,2013-06-23 04:07:00,
2013-06-23 00:12:00,78.5,72.5,30.05,ENE,68,0.4,1.1,82,0.06,,,0.01,WUHU216HW,2013-06-23 04:12:00,
2013-06-23 00:17:00,78.3,72.4,30.05,ESE,113,0.2,1.1,82,0.07,,,0.02,WUHU216HW,2013-06-23 04:17:00,
2013-06-23 00:22:00,78.3,72.4,30.05,ESE,113,0.0,1.1,82,0.07,,,0.02,WUHU216HW,2013-06-23 04:22:00,
2013-06-23 00:27:00,78.3,72.4,30.05,ENE,68,1.1,1.1,82,0.06,,,0.02,WUHU216HW,2013-06-23 04:27:00,
2013-06-23 00:33:00,78.3,72.4,30.05,ENE,68,0.7,1.1,82,0.05,,,0.02,WUHU216HW,2013-06-23 04:33:00,
2013-06-23 00:38:00,78.3,72.7,30.05,East,90,0.0,1.1,83,0.06,,,0.03,WUHU216HW,2013-06-23 04:38:00,
2013-06-23 00:43:00,78.5,72.9,30.05,SE,135,1.3,1.3,83,0.05,,,0.03,WUHU216HW,2013-06-23 04:43:00,
2013-06-23 00:48:00,78.5,72.9,30.06,SE,135,0.0,1.3,83,0.05,,,0.03,WUHU216HW,2013-06-23 04:48:00,
2013-06-23 00:53:00,78.5,72.9,30.06,SE,135,0.0,0.4,83,0.04,,,0.03,WUHU216HW,2013-06-23 04:53:00,
2013-06-23 00:58:00,78.5,72.9,30.06,SE,135,0.2,0.4,83,0.03,,,0.03,WUHU216HW,2013-06-23 04:58:00,
2013-06-23 01:03:00,78.3,72.7,30.06,SE,135,0.0,0.2,83,0.03,,,0.03,WUHU216HW,2013-06-23 05:03:00,
2013-06-23 01:08:00,78.3,72.7,30.06,SSW,203,0.0,0.0,83,0.02,,,0.03,WUHU216HW,2013-06-23 05:08:00,
2013-06-23 01:13:00,78.3,72.7,30.06,SSW,203,0.0,0.0,83,0.01,,,0.03,WUHU216HW,2013-06-23 05:13:00,
2013-06-23 01:18:00,78.3,72.7,30.06,SSW,203,0.0,0.0,83,0.01,,,0.03,WUHU216HW,2013-06-23 05:18:00,
2013-06-23 01:23:00,78.3,73.1,30.06,SSW,203,0.0,0.0,84,0.01,,,0.03,WUHU216HW,2013-06-23 05:23:00,
2013-06-23 01:29:00,78.1,72.9,30.06,South,180,0.0,0.7,84,0.01,,,0.03,WUHU216HW,2013-06-23 05:29:00,
2013-06-23 01:34:00,78.1,72.9,30.06,SSE,158,0.0,0.7,84,0.00,,,0.03,WUHU216HW,2013-06-23 05:34:00,
2013-06-23 01:39:00,78.1,72.9,30.05,SSE,158,0.0,0.0,84,0.00,,,0.03,WUHU216HW,2013-06-23 05:39:00,
2013-06-23 01:44:00,78.1,72.9,30.05,SSE,158,0.0,0.2,84,0.00,,,0.03,WUHU216HW,2013-06-23 05:44:00,
2013-06-23 01:49:00,78.1,72.9,30.05,SSE,158,0.0,0.2,84,0.00,,,0.03,WUHU216HW,2013-06-23 05:49:00,
2013-06-23 01:54:00,78.3,73.1,30.04,East,90,0.4,1.1,84,0.00,,,0.03,WUHU216HW,2013-06-23 05:54:00,
2013-06-23 01:59:00,78.3,73.1,30.04,NE,45,0.7,1.1,84,0.00,,,0.03,WUHU216HW,2013-06-23 05:59:00,
2013-06-23 02:02:00,78.1,72.9,30.04,NE,45,0.0,1.1,84,0.00,,,0.03,WUHU216HW,2013-06-23 06:02:00,
2013-06-23 02:07:00,78.1,72.9,30.04,ENE,68,0.4,1.3,84,0.00,,,0.03,WUHU216HW,2013-06-23 06:07:00,
2013-06-23 02:12:00,78.1,72.9,30.04,ENE,68,0.2,1.3,84,0.00,,,0.03,WUHU216HW,2013-06-23 06:12:00,
2013-06-23 02:17:00,77.9,72.7,30.04,NNW,338,0.4,1.1,84,0.00,,,0.03,WUHU216HW,2013-06-23 06:17:00,
2013-06-23 02:22:00,77.9,72.7,30.04,NNW,338,0.4,1.1,84,0.00,,,0.03,WUHU216HW,2013-06-23 06:22:00,
2013-06-23 02:27:00,78.1,72.9,30.04,ENE,68,0.9,0.9,84,0.00,,,0.03,WUHU216HW,2013-06-23 06:27:00,
2013-06-23 02:32:00,77.9,72.7,30.04,ENE,68,0.0,0.9,84,0.00,,,0.03,WUHU216HW,2013-06-23 06:32:00,
2013-06-23 02:37:00,77.9,73.1,30.03,ENE,68,0.0,0.2,85,0.00,,,0.03,WUHU216HW,2013-06-23 06:37:00,
2013-06-23 02:42:00,77.9,73.1,30.03,ENE,68,0.0,0.0,85,0.00,,,0.03,WUHU216HW,2013-06-23 06:42:00,
2013-06-23 02:47:00,77.9,73.1,30.04,ENE,68,0.0,0.0,85,0.00,,,0.03,WUHU216HW,2013-06-23 06:47:00,
2013-06-23 02:53:00,77.8,72.9,30.03,ENE,68,0.0,0.0,85,0.00,,,0.03,WUHU216HW,2013-06-23 06:53:00,
2013-06-23 02:58:00,77.8,72.9,30.03,ENE,68,0.0,0.0,85,0.00,,,0.03,WUHU216HW,2013-06-23 06:58:00,
2013-06-23 03:03:00,77.8,72.9,30.03,ENE,68,0.0,0.0,85,0.00,,,0.03,WUHU216HW,2013-06-23 07:03:00,
2013-06-23 03:08:00,77.8,72.9,30.03,ENE,68,0.0,0.0,85,0.00,,,0.03,WUHU216HW,2013-06-23 07:08:00,
2013-06-23 03:09:00,77.6,72.7,30.03,ENE,68,0.0,0.0,85,0.00,,,0.03,WUHU216HW,2013-06-23 07:09:00,
2013-06-23 03:13:00,77.6,72.7,30.03,ENE,68,0.0,0.0,85,0.00,,,0.03,WUHU216HW,2013-06-23 07:13:00,
2013-06-23 03:18:00,77.6,72.7,30.03,ENE,68,0.0,0.0,85,0.00,,,0.03,WUHU216HW,2013-06-23 07:18:00,
2013-06-23 03:39:00,77.6,72.7,30.03,NE,45,0.7,0.7,85,0.00,,,0.03,WUHU216HW,2013-06-23 07:39:00,
2013-06-23 03:45:00,77.6,72.7,30.03,NE,45,0.7,0.7,85,0.00,,,0.03,WUHU216HW,2013-06-23 07:45:00,
2013-06-23 04:00:00,77.4,72.5,30.03,North,0,0.0,0.0,85,0.00,,,0.03,WUHU216HW,2013-06-23 08:00:00,
2013-06-23 04:05:00,77.4,72.5,30.03,North,0,0.4,0.4,85,0.00,,,0.03,WUHU216HW,2013-06-23 08:05:00,
2013-06-23 04:11:00,77.2,72.4,30.03,NNE,23,0.4,1.6,85,0.00,,,0.03,WUHU216HW,2013-06-23 08:11:00,
2013-06-23 04:16:00,77.2,72.4,30.03,NNE,23,0.0,1.6,85,0.00,,,0.03,WUHU216HW,2013-06-23 08:16:00,
2013-06-23 04:21:00,77.2,72.4,30.03,North,0,0.2,1.6,85,0.00,,,0.03,WUHU216HW,2013-06-23 08:21:00,
2013-06-23 04:26:00,77.2,72.4,30.03,North,0,0.4,2.9,85,0.00,,,0.03,WUHU216HW,2013-06-23 08:26:00,
2013-06-23 04:31:00,77.2,72.4,30.03,NNW,338,0.2,2.9,85,0.00,,,0.03,WUHU216HW,2013-06-23 08:31:00,
2013-06-23 04:36:00,77.2,72.4,30.03,NNW,338,0.0,0.4,85,0.00,,,0.03,WUHU216HW,2013-06-23 08:36:00,
2013-06-23 04:41:00,77.2,72.4,30.03,NNW,338,0.4,0.4,85,0.00,,,0.03,WUHU216HW,2013-06-23 08:41:00,
2013-06-23 04:46:00,77.2,72.4,30.04,North,0,0.0,0.4,85,0.00,,,0.03,WUHU216HW,2013-06-23 08:46:00,
2013-06-23 04:52:00,77.2,72.4,30.04,North,0,0.0,0.4,85,0.00,,,0.03,WUHU216HW,2013-06-23 08:52:00,
2013-06-23 04:57:00,77.0,72.2,30.03,North,0,0.0,0.7,85,0.00,,,0.03,WUHU216HW,2013-06-23 08:57:00,
2013-06-23 05:02:00,77.0,72.2,30.03,NNE,23,1.1,1.1,85,0.00,,,0.03,WUHU216HW,2013-06-23 09:02:00,
2013-06-23 05:07:00,77.0,72.2,30.03,NE,45,1.1,1.1,85,0.00,,,0.03,WUHU216HW,2013-06-23 09:07:00,
2013-06-23 05:12:00,77.0,72.2,30.03,NNE,23,0.4,1.1,85,0.00,,,0.03,WUHU216HW,2013-06-23 09:12:00,
2013-06-23 05:17:00,76.9,72.0,30.03,ENE,68,0.4,1.1,85,0.00,,,0.03,WUHU216HW,2013-06-23 09:17:00,
2013-06-23 05:22:00,76.9,72.0,30.03,NE,45,0.9,0.9,85,0.00,,,0.03,WUHU216HW,2013-06-23 09:22:00,
2013-06-23 05:27:00,76.9,72.0,30.03,NNE,23,0.7,0.9,85,0.00,,,0.03,WUHU216HW,2013-06-23 09:27:00,
2013-06-23 05:32:00,76.9,72.0,30.03,NE,45,0.2,0.7,85,0.00,,,0.03,WUHU216HW,2013-06-23 09:32:00,
2013-06-23 05:38:00,76.9,72.0,30.03,NE,45,0.4,0.7,85,0.00,,,0.03,WUHU216HW,2013-06-23 09:38:00,
2013-06-23 05:43:00,76.7,71.8,30.03,NNE,23,1.8,1.8,85,0.00,,,0.03,WUHU216HW,2013-06-23 09:43:00,
2013-06-23 05:48:00,76.7,71.8,30.03,ENE,68,1.8,1.8,85,0.00,,,0.03,WUHU216HW,2013-06-23 09:48:00,
2013-06-23 05:53:00,76.5,71.6,30.03,East,90,0.9,1.8,85,0.00,,,0.03,WUHU216HW,2013-06-23 09:53:00,
2013-06-23 05:58:00,76.5,71.6,30.03,NNE,23,0.0,1.3,85,0.00,,,0.03,WUHU216HW,2013-06-23 09:58:00,
2013-06-23 06:03:00,76.5,71.6,30.03,ENE,68,0.0,0.9,85,0.00,,,0.03,WUHU216HW,2013-06-23 10:03:00,
2013-06-23 06:08:00,76.5,71.6,30.03,ENE,68,0.4,0.9,85,0.00,,,0.03,WUHU216HW,2013-06-23 10:08:00,
2013-06-23 06:13:00,76.5,71.6,30.03,East,90,0.7,1.1,85,0.00,,,0.03,WUHU216HW,2013-06-23 10:13:00,
2013-06-23 06:18:00,76.5,71.6,30.03,East,90,1.6,1.6,85,0.00,,,0.03,WUHU216HW,2013-06-23 10:18:00,
2013-06-23 06:24:00,76.5,71.6,30.03,East,90,0.4,1.6,85,0.00,,,0.03,WUHU216HW,2013-06-23 10:24:00,
2013-06-23 06:29:00,76.7,71.8,30.03,ESE,113,0.7,1.8,85,0.00,,,0.03,WUHU216HW,2013-06-23 10:29:00,
2013-06-23 06:34:00,76.7,71.8,30.04,NE,45,0.0,1.8,85,0.00,,,0.03,WUHU216HW,2013-06-23 10:34:00,
2013-06-23 06:39:00,76.7,71.8,30.04,NE,45,0.4,0.4,85,0.00,,,0.03,WUHU216HW,2013-06-23 10:39:00,
2013-06-23 06:44:00,76.7,71.8,30.03,ENE,68,0.2,0.9,85,0.00,,,0.03,WUHU216HW,2013-06-23 10:44:00,
2013-06-23 06:49:00,76.7,71.8,30.03,ENE,68,0.0,0.9,85,0.00,,,0.03,WUHU216HW,2013-06-23 10:49:00,
2013-06-23 06:54:00,76.7,72.2,30.04,ENE,68,0.4,1.1,86,0.00,,,0.03,WUHU216HW,2013-06-23 10:54:00,
2013-06-23 06:59:00,76.7,72.2,30.04,East,90,0.0,1.1,86,0.00,,,0.03,WUHU216HW,2013-06-23 10:59:00,
2013-06-23 07:04:00,76.7,72.2,30.04,East,90,0.4,0.9,86,0.00,,,0.03,WUHU216HW,2013-06-23 11:04:00,
2013-06-23 07:10:00,76.7,72.2,30.04,East,90,0.0,0.9,86,0.00,,,0.03,WUHU216HW,2013-06-23 11:10:00,
2013-06-23 07:15:00,76.5,72.0,30.04,NE,45,0.0,0.9,86,0.00,,,0.03,WUHU216HW,2013-06-23 11:15:00,
2013-06-23 07:20:00,76.7,72.2,30.04,East,90,0.4,1.8,86,0.00,,,0.03,WUHU216HW,2013-06-23 11:20:00,
2013-06-23 07:25:00,76.5,72.0,30.04,NNW,338,0.4,1.8,86,0.00,,,0.03,WUHU216HW,2013-06-23 11:25:00,
2013-06-23 07:30:00,76.5,72.0,30.04,ENE,68,0.7,1.1,86,0.00,,,0.03,WUHU216HW,2013-06-23 11:30:00,
2013-06-23 07:35:00,76.5,72.0,30.05,North,0,2.0,2.0,86,0.00,,,0.03,WUHU216HW,2013-06-23 11:35:00,
2013-06-23 07:40:00,76.5,72.0,30.05,ESE,113,2.9,2.9,86,0.00,,,0.03,WUHU216HW,2013-06-23 11:40:00,
2013-06-23 07:45:00,76.7,72.2,30.05,NNE,23,0.4,2.9,86,0.00,,,0.03,WUHU216HW,2013-06-23 11:45:00,
2013-06-23 07:50:00,76.7,72.2,30.06,ENE,68,0.2,2.5,86,0.00,,,0.03,WUHU216HW,2013-06-23 11:50:00,
2013-06-23 07:56:00,76.9,72.4,30.06,ESE,113,1.3,1.8,86,0.00,,,0.03,WUHU216HW,2013-06-23 11:56:00,
2013-06-23 08:01:00,76.9,72.4,30.06,ESE,113,2.5,2.5,86,0.00,,,0.03,WUHU216HW,2013-06-23 12:01:00,
2013-06-23 08:06:00,77.0,72.5,30.06,ESE,113,1.1,2.5,86,0.00,,,0.03,WUHU216HW,2013-06-23 12:06:00,
2013-06-23 08:11:00,77.0,72.2,30.06,East,90,0.4,2.7,85,0.00,,,0.03,WUHU216HW,2013-06-23 12:11:00,
2013-06-23 08:16:00,77.2,72.4,30.06,ENE,68,0.7,2.7,85,0.00,,,0.03,WUHU216HW,2013-06-23 12:16:00,
2013-06-23 08:21:00,77.4,72.5,30.06,NE,45,0.7,2.0,85,0.00,,,0.03,WUHU216HW,2013-06-23 12:21:00,
2013-06-23 08:26:00,77.4,72.5,30.06,ESE,113,2.5,4.0,85,0.00,,,0.03,WUHU216HW,2013-06-23 12:26:00,
2013-06-23 08:31:00,77.6,72.7,30.06,East,90,2.5,4.0,85,0.00,,,0.03,WUHU216HW,2013-06-23 12:31:00,
2013-06-23 08:36:00,77.8,72.9,30.06,SE,135,2.5,2.7,85,0.00,,,0.03,WUHU216HW,2013-06-23 12:36:00,
2013-06-23 08:41:00,77.9,73.1,30.07,ESE,113,1.3,3.6,85,0.00,,,0.03,WUHU216HW,2013-06-23 12:41:00,
2013-06-23 08:46:00,78.1,73.3,30.07,SE,135,1.3,3.6,85,0.00,,,0.03,WUHU216HW,2013-06-23 12:46:00,
2013-06-23 08:51:00,78.3,73.4,30.07,ESE,113,0.7,2.9,85,0.00,,,0.03,WUHU216HW,2013-06-23 12:51:00,
2013-06-23 08:56:00,78.7,73.8,30.07,ESE,113,2.5,3.4,85,0.00,,,0.03,WUHU216HW,2013-06-23 12:56:00,
2013-06-23 09:02:00,79.0,74.2,30.07,ESE,113,1.1,3.8,85,0.00,,,0.03,WUHU216HW,2013-06-23 13:02:00,
2013-06-23 09:07:00,79.4,74.5,30.07,SE,135,0.9,4.0,85,0.00,,,0.03,WUHU216HW,2013-06-23 13:07:00,
2013-06-23 09:12:00,79.7,74.9,30.07,ESE,113,3.4,4.0,85,0.00,,,0.03,WUHU216HW,2013-06-23 13:12:00,
2013-06-23 09:17:00,79.9,74.7,30.07,ENE,68,2.5,3.4,84,0.00,,,0.03,WUHU216HW,2013-06-23 13:17:00,
2013-06-23 09:22:00,80.3,75.0,30.08,ENE,68,4.0,4.0,84,0.00,,,0.03,WUHU216HW,2013-06-23 13:22:00,
2013-06-23 09:27:00,80.6,75.3,30.07,East,90,4.5,4.5,84,0.00,,,0.03,WUHU216HW,2013-06-23 13:27:00,
2013-06-23 09:32:00,81.2,75.5,30.08,ESE,113,2.5,4.5,83,0.00,,,0.03,WUHU216HW,2013-06-23 13:32:00,
2013-06-23 09:37:00,81.7,76.4,30.08,ENE,68,2.5,3.4,84,0.00,,,0.03,WUHU216HW,2013-06-23 13:37:00,
2013-06-23 09:42:00,82.3,76.3,30.08,East,90,4.5,4.5,82,0.00,,,0.03,WUHU216HW,2013-06-23 13:42:00,
2013-06-23 09:48:00,82.6,76.6,30.08,ESE,113,4.0,7.2,82,0.00,,,0.03,WUHU216HW,2013-06-23 13:48:00,
2013-06-23 09:53:00,83.0,76.2,30.07,SSE,158,1.8,7.2,80,0.00,,,0.03,WUHU216HW,2013-06-23 13:53:00,
2013-06-23 09:58:00,83.5,77.1,30.07,ESE,113,4.7,5.8,81,0.00,,,0.03,WUHU216HW,2013-06-23 13:58:00,
2013-06-23 10:03:00,83.7,77.0,30.07,South,180,3.4,4.7,80,0.00,,,0.03,WUHU216HW,2013-06-23 14:03:00,
2013-06-23 10:08:00,84.2,77.1,30.07,ESE,113,1.1,4.5,79,0.00,,,0.03,WUHU216HW,2013-06-23 14:08:00,
2013-06-23 10:13:00,84.6,77.0,30.07,ESE,113,3.1,4.3,78,0.00,,,0.03,WUHU216HW,2013-06-23 14:13:00,
2013-06-23 10:18:00,85.0,76.5,30.07,ESE,113,2.0,5.8,76,0.00,,,0.03,WUHU216HW,2013-06-23 14:18:00,
2013-06-23 10:23:00,85.1,76.7,30.07,ENE,68,1.8,5.8,76,0.00,,,0.03,WUHU216HW,2013-06-23 14:23:00,
2013-06-23 10:28:00,85.3,76.9,30.07,East,90,4.9,4.9,76,0.00,,,0.03,WUHU216HW,2013-06-23 14:28:00,
2013-06-23 10:33:00,85.7,77.2,30.07,ESE,113,4.3,4.9,76,0.00,,,0.03,WUHU216HW,2013-06-23 14:33:00,
2013-06-23 10:38:00,86.0,77.2,30.07,SSE,158,0.4,4.3,75,0.00,,,0.03,WUHU216HW,2013-06-23 14:38:00,
2013-06-23 10:43:00,86.0,76.1,30.07,SE,135,2.2,4.5,72,0.00,,,0.03,WUHU216HW,2013-06-23 14:43:00,
2013-06-23 10:48:00,86.4,76.8,30.07,SSE,158,2.5,4.5,73,0.00,,,0.03,WUHU216HW,2013-06-23 14:48:00,
2013-06-23 10:54:00,86.8,76.7,30.08,SE,135,2.7,4.5,72,0.00,,,0.03,WUHU216HW,2013-06-23 14:54:00,
2013-06-23 10:59:00,86.8,76.7,30.08,SE,135,2.2,4.5,72,0.00,,,0.03,WUHU216HW,2013-06-23 14:59:00,
2013-06-23 11:04:00,86.6,76.5,30.08,ESE,113,2.0,4.3,72,0.00,,,0.03,WUHU216HW,2013-06-23 15:04:00,
2013-06-23 11:09:00,87.1,77.1,30.08,SE,135,2.7,2.9,72,0.00,,,0.03,WUHU216HW,2013-06-23 15:09:00,
2013-06-23 11:14:00,87.5,77.4,30.08,SSE,158,2.2,2.7,72,0.00,,,0.03,WUHU216HW,2013-06-23 15:14:00,
2013-06-23 11:19:00,88.0,77.9,30.08,SSE,158,3.8,3.8,72,0.00,,,0.03,WUHU216HW,2013-06-23 15:19:00,
2013-06-23 11:24:00,88.2,76.8,30.08,SSE,158,0.9,3.8,69,0.00,,,0.03,WUHU216HW,2013-06-23 15:24:00,
2013-06-23 11:29:00,88.7,77.8,30.08,SSE,158,4.9,4.9,70,0.00,,,0.03,WUHU216HW,2013-06-23 15:29:00,
2013-06-23 11:34:00,88.9,77.5,30.08,SE,135,1.8,4.9,69,0.00,,,0.03,WUHU216HW,2013-06-23 15:34:00,
2013-06-23 11:39:00,88.9,77.5,30.08,SSE,158,1.8,4.3,69,0.00,,,0.03,WUHU216HW,2013-06-23 15:39:00,
2013-06-23 11:44:00,88.9,76.6,30.08,East,90,2.7,4.3,67,0.00,,,0.03,WUHU216HW,2013-06-23 15:44:00,
2013-06-23 11:49:00,88.9,77.1,30.08,SSE,158,1.1,3.6,68,0.00,,,0.03,WUHU216HW,2013-06-23 15:49:00,
2013-06-23 11:55:00,89.5,77.0,30.07,SE,135,0.9,4.9,67,0.00,,,0.03,WUHU216HW,2013-06-23 15:55:00,
2013-06-23 12:00:00,89.6,77.2,30.07,ENE,68,0.9,4.9,67,0.00,,,0.03,WUHU216HW,2013-06-23 16:00:00,
2013-06-23 12:05:00,89.6,76.8,30.08,ESE,113,3.4,4.0,66,0.00,,,0.03,WUHU216HW,2013-06-23 16:05:00,
2013-06-23 12:10:00,90.0,76.7,30.08,ESE,113,1.1,4.0,65,0.00,,,0.03,WUHU216HW,2013-06-23 16:10:00,
2013-06-23 12:15:00,90.0,76.7,30.08,North,0,0.7,4.0,65,0.00,,,0.03,WUHU216HW,2013-06-23 16:15:00,
2013-06-23 12:20:00,90.2,76.8,30.08,SSW,203,0.9,4.0,65,0.00,,,0.03,WUHU216HW,2013-06-23 16:20:00,
2013-06-23 12:25:00,90.4,76.5,30.08,SE,135,1.8,3.4,64,0.00,,,0.03,WUHU216HW,2013-06-23 16:25:00,
2013-06-23 12:30:00,90.7,76.9,30.07,SE,135,2.2,3.4,64,0.00,,,0.03,WUHU216HW,2013-06-23 16:30:00,
2013-06-23 12:35:00,91.3,78.2,30.07,SE,135,1.3,3.4,66,0.00,,,0.03,WUHU216HW,2013-06-23 16:35:00,
2013-06-23 12:40:00,91.8,78.3,30.07,SSE,158,0.4,3.4,65,0.00,,,0.03,WUHU216HW,2013-06-23 16:40:00,
2013-06-23 12:46:00,92.0,78.0,30.07,ESE,113,2.0,2.9,64,0.00,,,0.03,WUHU216HW,2013-06-23 16:46:00,
2013-06-23 12:51:00,92.0,77.6,30.07,NNE,23,0.2,2.9,63,0.00,,,0.03,WUHU216HW,2013-06-23 16:51:00,
2013-06-23 12:56:00,92.2,77.8,30.08,SSE,158,1.1,1.8,63,0.00,,,0.03,WUHU216HW,2013-06-23 16:56:00,
2013-06-23 12:57:00,92.3,78.0,30.08,SSW,203,0.4,1.1,63,0.00,,,0.03,WUHU216HW,2013-06-23 16:57:00,
2013-06-23 12:58:00,92.3,78.0,30.08,SSW,203,0.4,1.1,63,0.00,,,0.03,WUHU216HW,2013-06-23 16:58:00,
2013-06-23 13:03:00,92.2,76.8,30.08,SE,135,2.2,2.5,61,0.00,,,0.03,WUHU216HW,2013-06-23 17:03:00,
2013-06-23 13:08:00,91.8,76.9,30.08,SE,135,3.1,3.1,62,0.00,,,0.03,WUHU216HW,2013-06-23 17:08:00,
2013-06-23 13:13:00,90.7,76.3,30.09,ESE,113,2.9,8.3,63,0.00,,,0.03,WUHU216HW,2013-06-23 17:13:00,
2013-06-23 13:19:00,88.6,75.8,30.09,SSE,158,3.1,8.3,66,0.00,,,0.03,WUHU216HW,2013-06-23 17:19:00,
2013-06-23 13:24:00,87.7,75.3,30.08,ESE,113,2.5,5.1,67,0.01,,,0.04,WUHU216HW,2013-06-23 17:24:00,
2013-06-23 13:29:00,86.8,75.0,30.09,ESE,113,3.1,5.4,68,0.01,,,0.04,WUHU216HW,2013-06-23 17:29:00,
2013-06-23 13:34:00,85.9,75.1,30.09,SSE,158,2.0,5.4,70,0.01,,,0.04,WUHU216HW,2013-06-23 17:34:00,
2013-06-23 13:39:00,85.3,74.9,30.08,ENE,68,2.9,5.1,71,0.01,,,0.04,WUHU216HW,2013-06-23 17:39:00,
2013-06-23 13:44:00,85.0,75.0,30.08,SSW,203,1.6,4.0,72,0.01,,,0.04,WUHU216HW,2013-06-23 17:44:00,
2013-06-23 13:50:00,84.6,74.6,30.08,SE,135,1.6,4.0,72,0.01,,,0.04,WUHU216HW,2013-06-23 17:50:00,
2013-06-23 13:55:00,84.4,74.4,30.09,North,0,2.0,3.4,72,0.01,,,0.04,WUHU216HW,2013-06-23 17:55:00,
2013-06-23 14:00:00,84.1,74.4,30.10,NNW,338,2.0,3.1,73,0.01,,,0.04,WUHU216HW,2013-06-23 18:00:00,
2013-06-23 14:05:00,83.9,74.7,30.09,WNW,293,0.4,3.1,74,0.01,,,0.04,WUHU216HW,2013-06-23 18:05:00,
2013-06-23 14:10:00,83.5,74.4,30.09,NNW,338,0.2,1.1,74,0.01,,,0.04,WUHU216HW,2013-06-23 18:10:00,
2013-06-23 14:15:00,83.0,74.3,30.10,NNW,338,0.9,1.8,75,0.01,,,0.04,WUHU216HW,2013-06-23 18:15:00,
2013-06-23 14:20:00,82.4,74.2,30.09,North,0,1.6,1.8,76,0.01,,,0.04,WUHU216HW,2013-06-23 18:20:00,
2013-06-23 14:25:00,82.4,74.2,30.09,NW,315,0.7,3.4,76,0.00,,,0.04,WUHU216HW,2013-06-23 18:25:00,
2013-06-23 14:30:00,82.6,74.3,30.09,NNE,23,0.7,3.4,76,0.00,,,0.04,WUHU216HW,2013-06-23 18:30:00,
2013-06-23 14:35:00,82.6,74.3,30.09,NNE,23,1.1,2.7,76,0.00,,,0.04,WUHU216HW,2013-06-23 18:35:00,
2013-06-23 14:41:00,82.8,74.9,30.09,ESE,113,0.7,2.7,77,0.00,,,0.04,WUHU216HW,2013-06-23 18:41:00,
2013-06-23 14:46:00,82.8,74.4,30.09,SE,135,1.8,2.2,76,0.00,,,0.04,WUHU216HW,2013-06-23 18:46:00,
2013-06-23 14:51:00,82.8,74.4,30.08,ESE,113,3.1,4.0,76,0.00,,,0.04,WUHU216HW,2013-06-23 18:51:00,
2013-06-23 14:56:00,82.4,74.2,30.08,SSE,158,3.6,4.0,76,0.00,,,0.04,WUHU216HW,2013-06-23 18:56:00,
2013-06-23 15:01:00,82.4,74.2,30.07,SE,135,1.3,4.0,76,0.00,,,0.04,WUHU216HW,2013-06-23 19:01:00,
2013-06-23 15:06:00,82.3,74.0,30.07,SSE,158,2.5,2.9,76,0.00,,,0.04,WUHU216HW,2013-06-23 19:06:00,
2013-06-23 15:11:00,82.1,73.8,30.07,SE,135,2.5,2.9,76,0.00,,,0.04,WUHU216HW,2013-06-23 19:11:00,
2013-06-23 15:16:00,82.1,73.8,30.06,SE,135,0.9,2.9,76,0.00,,,0.04,WUHU216HW,2013-06-23 19:16:00,
2013-06-23 15:21:00,81.9,73.6,30.06,ESE,113,0.9,1.8,76,0.00,,,0.04,WUHU216HW,2013-06-23 19:21:00,
2013-06-23 15:26:00,81.9,73.6,30.06,ESE,113,0.0,1.1,76,0.00,,,0.04,WUHU216HW,2013-06-23 19:26:00,
2013-06-23 15:31:00,82.1,74.2,30.06,South,180,0.7,1.1,77,0.00,,,0.04,WUHU216HW,2013-06-23 19:31:00,
2013-06-23 15:36:00,81.9,74.0,30.07,SSE,158,1.3,1.3,77,0.00,,,0.04,WUHU216HW,2013-06-23 19:36:00,
2013-06-23 15:42:00,81.7,74.3,30.07,SE,135,0.4,1.3,78,0.00,,,0.04,WUHU216HW,2013-06-23 19:42:00,
2013-06-23 15:47:00,81.5,73.7,30.07,NE,45,0.7,1.1,77,0.00,,,0.04,WUHU216HW,2013-06-23 19:47:00,
2013-06-23 15:52:00,81.5,73.7,30.07,NE,45,0.0,0.7,77,0.01,,,0.05,WUHU216HW,2013-06-23 19:52:00,
2013-06-23 15:57:00,81.5,74.4,30.07,NE,45,0.0,0.4,79,0.01,,,0.05,WUHU216HW,2013-06-23 19:57:00,
2013-06-23 16:02:00,81.4,73.9,30.07,NE,45,0.4,0.4,78,0.01,,,0.05,WUHU216HW,2013-06-23 20:02:00,
2013-06-23 16:07:00,81.4,73.9,30.07,NE,45,0.0,0.4,78,0.01,,,0.05,WUHU216HW,2013-06-23 20:07:00,
2013-06-23 16:12:00,81.4,74.4,30.06,NNE,23,1.1,1.1,79,0.02,,,0.06,WUHU216HW,2013-06-23 20:12:00,
2013-06-23 16:17:00,81.4,73.9,30.06,NNE,23,0.4,1.1,78,0.02,,,0.06,WUHU216HW,2013-06-23 20:17:00,
2013-06-23 16:22:00,81.2,73.7,30.06,ESE,113,1.1,1.1,78,0.02,,,0.06,WUHU216HW,2013-06-23 20:22:00,
2013-06-23 16:27:00,81.2,73.7,30.05,East,90,0.0,1.1,78,0.02,,,0.06,WUHU216HW,2013-06-23 20:27:00,
2013-06-23 16:32:00,81.4,73.9,30.05,NNE,23,0.4,0.7,78,0.02,,,0.06,WUHU216HW,2013-06-23 20:32:00,
2013-06-23 16:37:00,81.0,73.5,30.05,NE,45,0.2,1.8,78,0.02,,,0.06,WUHU216HW,2013-06-23 20:37:00,
2013-06-23 16:42:00,80.8,74.2,30.06,ENE,68,1.6,1.8,80,0.02,,,0.06,WUHU216HW,2013-06-23 20:42:00,
2013-06-23 16:48:00,80.5,73.8,30.06,ESE,113,2.0,2.2,80,0.01,,,0.06,WUHU216HW,2013-06-23 20:48:00,
2013-06-23 16:53:00,80.8,74.5,30.04,ESE,113,1.8,2.2,81,0.01,,,0.06,WUHU216HW,2013-06-23 20:53:00,
2013-06-23 16:58:00,80.8,74.5,30.04,ESE,113,0.4,2.0,81,0.01,,,0.06,WUHU216HW,2013-06-23 20:58:00,
2013-06-23 17:03:00,81.0,74.3,30.04,NE,45,1.1,1.8,80,0.01,,,0.06,WUHU216HW,2013-06-23 21:03:00,
2013-06-23 17:08:00,81.2,74.2,30.05,ESE,113,1.6,1.8,79,0.01,,,0.06,WUHU216HW,2013-06-23 21:08:00,
2013-06-23 17:13:00,81.4,74.7,30.04,ENE,68,1.1,1.6,80,0.00,,,0.06,WUHU216HW,2013-06-23 21:13:00,
2013-06-23 17:18:00,81.5,74.9,30.05,ENE,68,1.8,1.8,80,0.00,,,0.06,WUHU216HW,2013-06-23 21:18:00,
2013-06-23 17:23:00,81.4,74.4,30.05,NE,45,0.4,2.0,79,0.00,,,0.06,WUHU216HW,2013-06-23 21:23:00,
2013-06-23 17:28:00,81.2,74.2,30.05,NE,45,1.1,2.0,79,0.00,,,0.06,WUHU216HW,2013-06-23 21:28:00,
2013-06-23 17:34:00,81.0,74.3,30.05,East,90,1.8,2.7,80,0.00,,,0.06,WUHU216HW,2013-06-23 21:34:00,
2013-06-23 17:39:00,80.6,74.0,30.04,East,90,1.8,2.7,80,0.00,,,0.06,WUHU216HW,2013-06-23 21:39:00,
2013-06-23 17:44:00,80.6,74.0,30.05,ENE,68,0.9,3.4,80,0.00,,,0.06,WUHU216HW,2013-06-23 21:44:00,
2013-06-23 17:49:00,80.6,74.4,30.04,NE,45,1.3,3.4,81,0.00,,,0.06,WUHU216HW,2013-06-23 21:49:00,
2013-06-23 17:54:00,80.6,74.4,30.05,ENE,68,0.4,2.5,81,0.00,,,0.06,WUHU216HW,2013-06-23 21:54:00,
2013-06-23 17:59:00,80.8,74.5,30.05,East,90,0.9,2.5,81,0.00,,,0.06,WUHU216HW,2013-06-23 21:59:00,
2013-06-23 18:04:00,81.0,74.3,30.04,ENE,68,0.0,1.6,80,0.00,,,0.06,WUHU216HW,2013-06-23 22:04:00,
2013-06-23 18:09:00,81.2,74.5,30.05,East,90,0.0,1.6,80,0.00,,,0.06,WUHU216HW,2013-06-23 22:09:00,
2013-06-23 18:14:00,81.4,74.7,30.05,East,90,0.2,1.1,80,0.00,,,0.06,WUHU216HW,2013-06-23 22:14:00,
2013-06-23 18:20:00,81.5,74.9,30.04,ENE,68,0.2,2.2,80,0.00,,,0.06,WUHU216HW,2013-06-23 22:20:00,
2013-06-23 18:25:00,81.7,75.1,30.04,ESE,113,0.0,2.2,80,0.00,,,0.06,WUHU216HW,2013-06-23 22:25:00,
2013-06-23 18:30:00,81.9,75.2,30.05,North,0,0.9,1.6,80,0.00,,,0.06,WUHU216HW,2013-06-23 22:30:00,
2013-06-23 18:35:00,82.1,75.0,30.05,ESE,113,0.4,1.6,79,0.00,,,0.06,WUHU216HW,2013-06-23 22:35:00,
2013-06-23 18:40:00,82.3,75.2,30.05,SE,135,0.9,1.3,79,0.00,,,0.06,WUHU216HW,2013-06-23 22:40:00,
2013-06-23 18:45:00,82.3,75.2,30.04,SE,135,0.7,1.3,79,0.00,,,0.06,WUHU216HW,2013-06-23 22:45:00,
2013-06-23 18:50:00,82.4,75.3,30.05,SSE,158,0.0,1.3,79,0.00,,,0.06,WUHU216HW,2013-06-23 22:50:00,
2013-06-23 18:55:00,82.4,75.3,30.04,SSE,158,0.2,1.3,79,0.00,,,0.06,WUHU216HW,2013-06-23 22:55:00,
2013-06-23 19:00:00,82.4,75.3,30.05,ENE,68,0.9,0.9,79,0.00,,,0.06,WUHU216HW,2013-06-23 23:00:00,
2013-06-23 19:05:00,82.4,75.3,30.05,North,0,0.0,0.9,79,0.00,,,0.06,WUHU216HW,2013-06-23 23:05:00,
2013-06-23 19:11:00,82.4,75.3,30.05,ENE,68,0.9,0.9,79,0.00,,,0.06,WUHU216HW,2013-06-23 23:11:00,
2013-06-23 19:16:00,82.4,75.3,30.05,ENE,68,0.0,0.9,79,0.00,,,0.06,WUHU216HW,2013-06-23 23:16:00,
2013-06-23 19:21:00,82.4,75.3,30.05,ENE,68,0.0,0.2,79,0.00,,,0.06,WUHU216HW,2013-06-23 23:21:00,
2013-06-23 19:26:00,82.4,75.3,30.06,East,90,0.2,0.4,79,0.00,,,0.06,WUHU216HW,2013-06-23 23:26:00,
2013-06-23 19:31:00,82.4,75.3,30.06,ENE,68,0.4,1.6,79,0.00,,,0.06,WUHU216HW,2013-06-23 23:31:00,
2013-06-23 19:36:00,82.3,75.2,30.06,ENE,68,0.4,1.6,79,0.00,,,0.06,WUHU216HW,2013-06-23 23:36:00,
2013-06-23 19:41:00,82.3,75.2,30.06,ENE,68,0.0,0.9,79,0.00,,,0.06,WUHU216HW,2013-06-23 23:41:00,
2013-06-23 19:46:00,82.3,75.2,30.06,East,90,1.1,1.1,79,0.00,,,0.06,WUHU216HW,2013-06-23 23:46:00,
2013-06-23 19:51:00,82.3,75.2,30.06,East,90,0.2,1.1,79,0.00,,,0.06,WUHU216HW,2013-06-23 23:51:00,
2013-06-23 19:56:00,82.4,75.3,30.06,East,90,0.9,0.9,79,0.00,,,0.06,WUHU216HW,2013-06-23 23:56:00,
2013-06-23 20:01:00,82.3,75.2,30.06,ESE,113,0.4,0.9,79,0.00,,,0.06,WUHU216HW,2013-06-24 00:01:00,
2013-06-23 20:06:00,82.1,75.0,30.07,ESE,113,0.4,0.9,79,0.00,,,0.06,WUHU216HW,2013-06-24 00:06:00,
2013-06-23 20:12:00,82.1,75.4,30.06,ENE,68,0.9,0.9,80,0.00,,,0.06,WUHU216HW,2013-06-24 00:12:00,
2013-06-23 20:17:00,81.9,75.2,30.07,NE,45,0.4,1.3,80,0.00,,,0.06,WUHU216HW,2013-06-24 00:17:00,
2013-06-23 20:22:00,81.5,74.9,30.07,ENE,68,1.6,2.5,80,0.00,,,0.06,WUHU216HW,2013-06-24 00:22:00,
2013-06-23 20:27:00,81.2,74.2,30.07,NNE,23,0.4,2.5,79,0.00,,,0.06,WUHU216HW,2013-06-24 00:27:00,
2013-06-23 20:32:00,81.0,74.0,30.07,NE,45,2.0,2.5,79,0.00,,,0.06,WUHU216HW,2013-06-24 00:32:00,
2013-06-23 20:37:00,80.8,73.8,30.07,East,90,0.4,2.2,79,0.00,,,0.06,WUHU216HW,2013-06-24 00:37:00,
2013-06-23 20:42:00,80.6,73.6,30.07,ENE,68,0.9,1.8,79,0.00,,,0.06,WUHU216HW,2013-06-24 00:42:00,
2013-06-23 20:47:00,80.6,73.6,30.07,ENE,68,2.2,2.9,79,0.00,,,0.06,WUHU216HW,2013-06-24 00:47:00,
2013-06-23 20:52:00,80.5,73.5,30.08,ENE,68,0.7,2.9,79,0.00,,,0.06,WUHU216HW,2013-06-24 00:52:00,
2013-06-23 20:58:00,80.5,73.5,30.08,ESE,113,0.0,1.1,79,0.00,,,0.06,WUHU216HW,2013-06-24 00:58:00,
2013-06-23 21:03:00,80.6,74.0,30.08,NNE,23,1.3,1.3,80,0.00,,,0.06,WUHU216HW,2013-06-24 01:03:00,
2013-06-23 21:08:00,80.6,74.0,30.07,ESE,113,1.1,1.3,80,0.00,,,0.06,WUHU216HW,2013-06-24 01:08:00,
2013-06-23 21:13:00,80.8,74.2,30.07,ESE,113,0.4,1.8,80,0.00,,,0.06,WUHU216HW,2013-06-24 01:13:00,
2013-06-23 21:18:00,80.6,74.0,30.07,East,90,1.1,1.8,80,0.00,,,0.06,WUHU216HW,2013-06-24 01:18:00,
2013-06-23 21:23:00,80.6,74.0,30.08,East,90,0.7,1.1,80,0.00,,,0.06,WUHU216HW,2013-06-24 01:23:00,
2013-06-23 21:28:00,80.6,74.0,30.08,East,90,0.0,0.7,80,0.00,,,0.06,WUHU216HW,2013-06-24 01:28:00,
2013-06-23 21:33:00,80.5,73.8,30.08,ENE,68,0.0,0.9,80,0.00,,,0.06,WUHU216HW,2013-06-24 01:33:00,
2013-06-23 21:34:00,80.5,73.8,30.08,ENE,68,0.2,0.2,80,0.00,,,0.06,WUHU216HW,2013-06-24 01:34:00,
2013-06-23 21:39:00,80.5,73.8,30.08,ENE,68,0.2,0.7,80,0.00,,,0.06,WUHU216HW,2013-06-24 01:39:00,
2013-06-23 21:44:00,80.5,73.8,30.08,ENE,68,0.2,0.2,80,0.00,,,0.06,WUHU216HW,2013-06-24 01:44:00,
2013-06-23 22:00:00,80.1,73.8,30.08,ENE,68,0.2,0.2,81,0.00,,,0.06,WUHU216HW,2013-06-24 02:00:00,
2013-06-23 22:06:00,79.9,73.6,30.08,East,90,0.4,1.1,81,0.00,,,0.06,WUHU216HW,2013-06-24 02:06:00,
2013-06-23 22:11:00,79.7,73.5,30.08,East,90,0.4,1.6,81,0.00,,,0.06,WUHU216HW,2013-06-24 02:11:00,
2013-06-23 22:16:00,79.7,73.5,30.09,SSE,158,0.7,1.6,81,0.00,,,0.06,WUHU216HW,2013-06-24 02:16:00,
2013-06-23 22:21:00,79.7,73.5,30.09,NNE,23,0.0,1.1,81,0.00,,,0.06,WUHU216HW,2013-06-24 02:21:00,
2013-06-23 22:26:00,79.6,73.3,30.09,ESE,113,1.1,1.1,81,0.00,,,0.06,WUHU216HW,2013-06-24 02:26:00,
2013-06-23 22:31:00,79.4,73.1,30.09,North,0,0.9,2.0,81,0.00,,,0.06,WUHU216HW,2013-06-24 02:31:00,
2013-06-23 22:36:00,79.0,72.7,30.09,SE,135,0.4,2.0,81,0.00,,,0.06,WUHU216HW,2013-06-24 02:36:00,
2013-06-23 22:41:00,78.8,72.5,30.09,NNW,338,1.1,1.8,81,0.00,,,0.06,WUHU216HW,2013-06-24 02:41:00,
2013-06-23 22:47:00,78.8,72.5,30.09,NNE,23,0.7,1.8,81,0.00,,,0.06,WUHU216HW,2013-06-24 02:47:00,
2013-06-23 22:52:00,78.8,72.5,30.09,NNE,23,0.2,1.3,81,0.00,,,0.06,WUHU216HW,2013-06-24 02:52:00,
2013-06-23 22:57:00,78.8,72.5,30.09,ESE,113,1.8,1.8,81,0.00,,,0.06,WUHU216HW,2013-06-24 02:57:00,
2013-06-23 23:02:00,78.7,72.4,30.09,ESE,113,1.1,1.8,81,0.00,,,0.06,WUHU216HW,2013-06-24 03:02:00,
2013-06-23 23:07:00,78.8,72.5,30.09,NE,45,0.4,1.8,81,0.00,,,0.06,WUHU216HW,2013-06-24 03:07:00,
2013-06-23 23:12:00,78.8,72.5,30.09,ESE,113,0.0,1.1,81,0.00,,,0.06,WUHU216HW,2013-06-24 03:12:00,
2013-06-23 23:17:00,78.8,72.5,30.09,ESE,113,0.0,1.1,81,0.00,,,0.06,WUHU216HW,2013-06-24 03:17:00,
2013-06-23 23:23:00,78.8,72.5,30.10,ESE,113,1.1,1.8,81,0.00,,,0.06,WUHU216HW,2013-06-24 03:23:00,
2013-06-23 23:28:00,78.8,72.5,30.10,ESE,113,2.9,2.9,81,0.00,,,0.06,WUHU216HW,2013-06-24 03:28:00,
2013-06-23 23:33:00,78.8,72.5,30.10,North,0,1.1,3.8,81,0.00,,,0.06,WUHU216HW,2013-06-24 03:33:00,
2013-06-23 23:38:00,78.8,72.5,30.10,ENE,68,2.2,3.8,81,0.00,,,0.06,WUHU216HW,2013-06-24 03:38:00,
2013-06-23 23:43:00,78.7,72.4,30.10,NE,45,0.2,2.2,81,0.00,,,0.06,WUHU216HW,2013-06-24 03:43:00,
2013-06-23 23:48:00,78.7,72.4,30.10,NNE,23,0.4,0.9,81,0.00,,,0.06,WUHU216HW,2013-06-24 03:48:00,
2013-06-23 23:53:00,78.7,72.4,30.11,NNW,338,0.2,1.6,81,0.00,,,0.06,WUHU216HW,2013-06-24 03:53:00,
2013-06-23 23:58:00,78.7,72.4,30.11,ENE,68,2.0,2.0,81,0.00,,,0.06,WUHU216HW,2013-06-24 03:58:00,